[[{"header":{"parameterUnit":"m.s-1","parameterCategory":2,"la1":30.2991,"la2":30.254,"lo1":-89.0895,"lo2":-89.0444,"dy":0.0017,"dx":0.0017,"nx":28,"ny":28,"refTime":"2023-08-02T21:00:00:Z","depth":"0","parameterNumber":2,"parameterNumberName":"U-component_of_CURRENTS"},"data":[0,0,0,0,0,0,0,0,0,0,0,0,0,0,0,0,0,0,0,0,0,0,0,0,0,0,0,0,0,0,0,0,0,0,0,0,0,0,0,0,0,0,0,0,0,0,0,0,0,0,0,0,0,0,0,0,0,0,-0.2623,-0.2625,0,-0.2808,-0.281,-0.2812,-0.2815,-0.2813,-0.281,-0.2808,-0.266,-0.2658,-0.2656,0,0,0,0,0,0,0,0,0,0,0,0,0,-0.2384,-0.2387,-0.2622,-0.2625,-0.2627,-0.2808,-0.281,-0.2813,-0.2815,-0.2813,-0.281,-0.2807,-0.266,-0.2658,-0.2656,0,0,0,0,0,0,0,0,0,0,0,0,0,-0.252,-0.2388,-0.2622,-0.265,-0.2654,-0.2807,-0.281,-0.2814,-0.2816,-0.2813,-0.2809,-0.2806,-0.2661,-0.2658,-0.2656,-0.271,0,0,-0.2648,-0.2647,0,0,0,0,0,0,0,0,-0.2512,-0.2529,-0.2644,-0.2648,-0.2653,-0.2785,-0.2672,-0.2762,-0.2817,-0.2755,-0.2808,-0.2804,-0.2673,-0.2669,-0.2717,-0.2703,-0.2697,-0.2647,-0.2646,-0.2645,-0.2644,0,0,0,0,0,0,0,-0.2502,-0.2521,-0.2696,-0.2646,-0.2652,-0.2692,-0.2706,-0.2691,-0.2725,-0.276,-0.2761,-0.2782,-0.2673,-0.272,-0.2712,-0.2695,-0.2648,-0.2645,-0.2644,-0.2643,-0.2606,-0.2607,0,0,0,0,0,0,-0.2478,-0.2513,-0.269,-0.2702,-0.2572,-0.2699,-0.2715,-0.2746,-0.2733,-0.273,-0.2785,-0.2782,-0.2726,-0.2716,-0.2707,-0.2635,-0.2645,-0.2642,-0.2641,-0.2605,-0.2606,-0.2607,0,0,0,0,0,0,-0.2473,-0.2493,-0.2683,-0.261,-0.2637,-0.2706,-0.2742,-0.2752,-0.2785,-0.2756,-0.2745,-0.2804,-0.2723,-0.271,-0.268,-0.2633,-0.2641,-0.2639,-0.2605,-0.2606,-0.2606,-0.2575,0,0,0,0,0,0,-0.2465,-0.249,-0.2506,-0.2609,-0.264,-0.2762,-0.2745,-0.2758,-0.2804,-0.2801,-0.2769,-0.2754,-0.2719,-0.2685,-0.2678,-0.2629,-0.2637,-0.2604,-0.2605,-0.2606,-0.2575,-0.2575,-0.2574,0,0,0,0,0,-0.2456,-0.2481,-0.2506,-0.2527,-0.2659,-0.2764,-0.2784,-0.2821,-0.2808,-0.2835,-0.2804,-0.2754,-0.2685,-0.2684,-0.2675,-0.2624,-0.2603,-0.2605,-0.2606,-0.2576,-0.2575,-0.2574,0,0,0,0,0,0,-0.2394,-0.2488,-0.2515,-0.2571,-0.2658,-0.2763,-0.2783,-0.2827,-0.284,-0.2809,-0.2775,-0.276,-0.2704,-0.2697,-0.2696,-0.2624,-0.2631,-0.2631,-0.2611,-0.261,-0.261,-0.2586,-0.2634,0,0,0,0,0,-0.2391,-0.2423,-0.2535,-0.258,-0.2612,-0.2703,-0.2749,-0.2786,-0.2816,-0.2822,-0.281,-0.2771,-0.2716,-0.2687,-0.2657,-0.2637,-0.2564,-0.2599,-0.2598,-0.2597,-0.2577,-0.2469,-0.2455,-0.2611,-0.2611,-0.2611,0,0,-0.2385,-0.2435,-0.2459,-0.2567,-0.2623,-0.2658,-0.2719,-0.2784,-0.2781,-0.2796,-0.2771,-0.2769,-0.2713,-0.2671,-0.2645,-0.2648,-0.251,-0.2599,-0.2598,-0.2577,-0.2468,-0.2452,-0.2438,-0.2612,-0.2612,-0.2612,0,0,-0.2356,-0.2425,-0.2427,-0.2496,-0.2583,-0.2635,-0.265,-0.276,-0.2764,-0.2766,-0.2757,-0.2736,-0.2687,-0.2651,-0.261,-0.2598,-0.251,-0.2598,-0.2568,-0.2464,-0.2448,-0.2434,-0.2285,-0.2258,-0.2598,-0.2598,-0.2598,0,-0.2325,-0.237,-0.245,-0.247,-0.2514,-0.2608,-0.2628,-0.265,-0.2736,-0.2728,-0.2725,-0.2668,-0.265,-0.256,-0.2577,-0.2583,-0.2512,-0.2565,-0.2457,-0.2442,-0.2427,-0.2279,-0.2249,-0.2597,-0.2597,-0.2597,-0.2597,0,-0.2294,-0.2344,-0.2352,-0.2389,-0.2446,-0.2494,-0.2543,-0.257,-0.2577,-0.2603,-0.2547,-0.2547,-0.252,-0.2513,-0.2536,-0.2453,-0.2428,-0.2461,-0.2445,-0.2408,-0.2255,-0.2224,-0.2595,-0.2596,-0.2596,-0.2596,0,0,-0.2163,-0.2301,-0.2297,-0.234,-0.2419,-0.2471,-0.2434,-0.2459,-0.2421,-0.2446,-0.2379,-0.2352,-0.2409,-0.2375,-0.2415,-0.2349,-0.2207,-0.2388,-0.2384,-0.2215,-0.1939,-0.1624,-0.156,-0.2231,-0.2227,-0.2223,-0.1857,0,-0.2102,-0.2146,-0.2222,-0.2261,-0.2294,-0.2375,-0.2344,-0.2367,-0.2352,-0.2313,-0.2277,-0.2222,-0.233,-0.2321,-0.2286,-0.2221,-0.2133,-0.2301,-0.2023,-0.2012,-0.1715,-0.1516,-0.1402,-0.104,-0.1827,-0.1822,-0.1818,0,-0.2005,-0.2068,-0.2103,-0.2228,-0.2244,-0.2261,-0.2257,-0.227,-0.2214,-0.2183,-0.2143,-0.2126,-0.2049,-0.2138,-0.1961,-0.2069,-0.2019,-0.1954,-0.1938,-0.163,-0.1638,-0.1215,-0.0955,-0.1072,-0.1771,-0.1774,-0.1778,0,-0.1851,-0.1975,-0.201,-0.2055,-0.218,-0.2185,-0.2241,-0.2222,-0.215,-0.211,-0.1958,-0.1958,-0.1783,-0.1798,-0.1661,-0.1833,-0.1378,-0.1591,-0.1235,-0.1212,-0.1043,-0.1009,-0.0834,-0.1436,-0.1436,-0.1437,-0.1439,0,-0.1738,-0.1763,-0.1957,-0.1975,-0.201,-0.213,-0.2079,-0.2126,-0.2026,-0.1844,-0.1907,-0.163,-0.1678,-0.1425,-0.1513,-0.1154,-0.1236,-0.1133,-0.1061,-0.1023,-0.0994,-0.1035,-0.1208,-0.1424,-0.1427,-0.1429,-0.1432,0,-0.1529,-0.1659,-0.1731,-0.1894,-0.1939,-0.197,-0.1971,-0.1862,-0.1827,-0.1554,-0.149,-0.1249,-0.0905,-0.0859,-0.0702,-0.0756,-0.0593,-0.0479,-0.0381,-0.0302,-0.0187,-0.0363,-0.0122,-0.0112,-0.0102,-0.0091,-0.0082,0,-0.1431,-0.1444,-0.1645,-0.1667,-0.1737,-0.1778,-0.1714,-0.1754,-0.1593,-0.1247,-0.1028,-0.0597,-0.0262,0.0158,0.0199,0.028,-0.0018,0.0397,0.0069,-0.0037,-0.0188,-0.0428,-0.0464,0.0289,0.03,0.0309,0.0317,0,-0.1237,-0.1311,-0.1365,-0.1436,-0.1431,-0.1396,-0.1335,-0.1176,-0.1083,-0.0821,-0.0368,-0.0092,0.0455,0.0717,0.0937,0.0909,0.032,0.0595,0.043,0.0155,-0.0044,-0.0046,-0.0096,0.0398,0.039,0.0384,0.038,0.0376,-0.1074,-0.1067,-0.1143,-0.1181,-0.1149,-0.0999,-0.0894,-0.0745,-0.0491,-0.0127,0.0083,0.0454,0.0843,0.1211,0.1239,0.1316,0.1043,0.1085,0.0894,0.0673,0.0654,0.087,0.1473,0.1471,0.1469,0.1468,0.1467,0,-0.0877,-0.0865,-0.0872,-0.0893,-0.0741,-0.0814,-0.0588,-0.0423,-0.011,0.0149,0.0448,0.0809,0.121,0.1394,0.1648,0.1525,0.125,0.1384,0.0931,0.0885,0.1074,0.1063,0.1675,0.1675,0.1675,0.1675,0.1675,0.1676,-0.0774,-0.0689,-0.0699,-0.0493,-0.046,-0.0216,-0.0067,0.0112,0.0269,0.0589,0.0717,0.0806,0.1046,0.1426,0.1526,0.1475,0.1057,0.11,0.0918,0.086,0.0807,0.0757,0.0709,0.1237,0.1236,0.0733,0.0728,0.0725]},{"header":{"parameterUnit":"m.s-1","parameterCategory":2,"la1":30.2991,"la2":30.254,"lo1":-89.0895,"lo2":-89.0444,"dy":0.0017,"dx":0.0017,"nx":28,"ny":28,"refTime":"2023-08-02T21:00:00:Z","depth":"0","parameterNumber":3,"parameterNumberName":"V-component_of_CURRENTS"},"data":[0,0,0,0,0,0,0,0,0,0,0,0,0,0,0,0,0,0,0,0,0,0,0,0,0,0,0,0,0,0,0,0,0,0,0,0,0,0,0,0,0,0,0,0,0,0,0,0,0,0,0,0,0,0,0,0,0,0,0.0063,0.0066,0,0.0386,0.039,0.0394,0.0563,0.0563,0.0563,0.0562,0.0724,0.0728,0.0733,0,0,0,0,0,0,0,0,0,0,0,0,0,-0.02,-0.0197,0.0063,0.0067,0.007,0.0385,0.039,0.0395,0.0563,0.0563,0.0563,0.0562,0.0722,0.0728,0.0733,0,0,0,0,0,0,0,0,0,0,0,0,0,0.0001,-0.0196,0.0062,0.0189,0.0203,0.0384,0.039,0.0396,0.0563,0.0563,0.0563,0.0562,0.0721,0.0727,0.0734,0.0779,0,0,0.0754,0.0757,0,0,0,0,0,0,0,0,-0.001,0.0011,0.0167,0.018,0.0197,0.043,0.0357,0.0515,0.0563,0.0431,0.0562,0.0562,0.0608,0.0624,0.0694,0.0787,0.0794,0.0755,0.0759,0.0761,0.0763,0,0,0,0,0,0,0,-0.0025,-0.0,0.0195,0.017,0.0189,0.03,0.0327,0.039,0.0517,0.0443,0.0454,0.0483,0.0615,0.0687,0.0698,0.0796,0.0754,0.076,0.0764,0.0767,0.0897,0.0896,0,0,0,0,0,0,-0.0084,-0.0015,0.0185,0.0205,0.0085,0.0304,0.0335,0.0359,0.052,0.0545,0.0483,0.049,0.0676,0.069,0.0704,0.0726,0.0761,0.0768,0.0771,0.0897,0.0897,0.0896,0,0,0,0,0,0,-0.0091,-0.0069,0.0172,0.0099,0.0137,0.0307,0.0334,0.0365,0.0436,0.0552,0.0575,0.052,0.0676,0.0695,0.0737,0.0734,0.0771,0.0777,0.0898,0.0897,0.0896,0.0795,0,0,0,0,0,0,-0.01,-0.0074,-0.0074,0.0095,0.0139,0.027,0.0335,0.0372,0.0452,0.0464,0.0591,0.0607,0.0677,0.0726,0.0743,0.0744,0.0782,0.0899,0.0898,0.0897,0.0799,0.0791,0.0784,0,0,0,0,0,-0.011,-0.0109,-0.0077,-0.0052,0.0131,0.027,0.0304,0.0427,0.0453,0.0489,0.0551,0.0603,0.0732,0.0731,0.0751,0.0754,0.0899,0.0898,0.0897,0.0803,0.0793,0.0784,0,0,0,0,0,0,-0.0215,-0.0087,-0.0048,-0.0008,0.0112,0.0296,0.0334,0.0416,0.0505,0.0496,0.0598,0.0618,0.0667,0.0713,0.0709,0.0787,0.0824,0.0827,0.0746,0.0737,0.073,0.0655,0.0787,0,0,0,0,0,-0.0246,-0.0215,-0.0069,-0.0035,0.0008,0.0165,0.0233,0.0318,0.0419,0.0462,0.0551,0.0621,0.0683,0.0706,0.0783,0.081,0.085,0.0825,0.0817,0.081,0.0762,0.0776,0.0765,0.0892,0.0892,0.0892,0,0,-0.0276,-0.0203,-0.0184,-0.0056,0.0038,0.0088,0.0206,0.0298,0.0328,0.0456,0.0509,0.0609,0.0689,0.0738,0.0761,0.0768,0.0816,0.0809,0.0802,0.0757,0.0774,0.0761,0.075,0.0891,0.0891,0.0892,0,0,-0.0322,-0.0264,-0.0257,-0.0179,-0.0057,0.0035,0.0047,0.0218,0.0276,0.034,0.0442,0.0514,0.0617,0.0683,0.0719,0.0703,0.0788,0.0746,0.0632,0.0648,0.0636,0.0626,0.0744,0.0745,0.0724,0.0724,0.0724,0,-0.0368,-0.0338,-0.0228,-0.0206,-0.0162,-0.0012,0.0003,0.0084,0.0247,0.0283,0.0322,0.0489,0.0577,0.0617,0.0624,0.0684,0.0735,0.0663,0.0634,0.0625,0.0616,0.0738,0.0741,0.0719,0.072,0.072,0.0721,0,-0.0398,-0.0387,-0.0379,-0.032,-0.0256,-0.0212,-0.0105,-0.0042,0.0032,0.0128,0.0206,0.033,0.0425,0.0478,0.0542,0.0548,0.0627,0.0637,0.0649,0.0596,0.0731,0.0736,0.0712,0.0714,0.0715,0.0717,0,0,-0.046,-0.0416,-0.0412,-0.0403,-0.0317,-0.0248,-0.0246,-0.0157,-0.0093,-0.0017,0.0065,0.0133,0.0233,0.0277,0.0395,0.0399,0.0442,0.0476,0.0479,0.0579,0.0546,0.0622,0.0636,0.0438,0.0437,0.0435,0.0694,0,-0.0515,-0.0531,-0.0483,-0.0483,-0.0479,-0.038,-0.0351,-0.0263,-0.0154,-0.0025,0.003,0.0173,0.0144,0.0264,0.0224,0.0443,0.0433,0.0374,0.0591,0.0599,0.0658,0.0633,0.07,0.0934,0.0699,0.07,0.07,0,-0.0545,-0.0558,-0.0596,-0.0543,-0.0524,-0.0506,-0.0395,-0.0329,-0.0179,-0.0075,-0.0024,0.0106,0.0167,0.0174,0.0278,0.0246,0.034,0.045,0.0463,0.0548,0.0677,0.0933,0.0951,0.0891,0.0708,0.0707,0.0707,0,-0.0609,-0.0612,-0.0651,-0.0641,-0.0575,-0.0568,-0.0505,-0.0362,-0.0207,-0.0066,0.0123,0.0104,0.0305,0.0246,0.0417,0.0369,0.0579,0.0563,0.0692,0.0706,0.0807,0.083,0.0764,0.0557,0.0557,0.0556,0.0555,0,-0.0662,-0.0675,-0.0687,-0.0699,-0.0678,-0.061,-0.0474,-0.0409,-0.0166,0.0089,0.0112,0.0379,0.0334,0.0473,0.045,0.0606,0.058,0.066,0.0742,0.0787,0.0804,0.0792,0.0748,0.0566,0.0564,0.0562,0.056,0,-0.0692,-0.0713,-0.074,-0.073,-0.0708,-0.068,-0.042,-0.0246,-0.0058,0.0294,0.0373,0.0661,0.0844,0.0785,0.0892,0.0811,0.0883,0.0908,0.101,0.1092,0.1092,0.1043,0.1109,0.116,0.1079,0.1082,0.1084,0,-0.0702,-0.0738,-0.076,-0.0733,-0.0728,-0.0619,-0.0463,-0.024,0.0024,0.0527,0.0745,0.1038,0.1329,0.1466,0.13,0.1216,0.1125,0.1257,0.1105,0.1077,0.1084,0.1046,0.1081,0.1271,0.1275,0.1278,0.1281,0,-0.0713,-0.0738,-0.0755,-0.0724,-0.0624,-0.0419,-0.0183,0.0045,0.0427,0.0749,0.1299,0.1573,0.1782,0.1825,0.1662,0.1565,0.1244,0.1321,0.124,0.1156,0.1163,0.1261,0.1188,0.1308,0.1305,0.1303,0.1302,0.1301,-0.0692,-0.0711,-0.0722,-0.0667,-0.052,-0.022,0.003,0.0365,0.0792,0.1361,0.1658,0.2131,0.2192,0.2024,0.1845,0.1545,0.1518,0.1471,0.1416,0.1381,0.1375,0.1388,0.1602,0.1601,0.16,0.1599,0.1599,0,-0.0615,-0.0633,-0.0617,-0.0488,-0.0245,-0.0183,0.0266,0.0595,0.1104,0.1557,0.2057,0.2495,0.2406,0.2211,0.1832,0.1652,0.1552,0.1557,0.1474,0.1505,0.149,0.1433,0.1679,0.1679,0.1679,0.1679,0.1679,0.1679,-0.0566,-0.0537,-0.0545,-0.0235,-0.0083,0.0372,0.0659,0.1062,0.1441,0.2083,0.2496,0.283,0.2753,0.2056,0.164,0.1588,0.1528,0.1512,0.1474,0.1378,0.1363,0.1349,0.1278,0.1488,0.1488,0.1536,0.1535,0.1535]}],[{"header":{"parameterUnit":"m.s-1","parameterCategory":2,"la1":30.2991,"la2":30.254,"lo1":-89.0895,"lo2":-89.0444,"dy":0.0017,"dx":0.0017,"nx":28,"ny":28,"refTime":"2023-08-02T21:00:00:Z","depth":"2","parameterNumber":2,"parameterNumberName":"U-component_of_CURRENTS"},"data":[0,0,0,0,0,0,0,0,0,0,0,0,0,0,0,0,0,0,0,0,0,0,0,0,0,0,0,0,0,0,0,0,0,0,0,0,0,0,0,0,0,0,0,0,0,0,0,0,0,0,0,0,0,0,0,0,0,0,-0.16,-0.1601,0,-0.162,-0.162,-0.1621,-0.1659,-0.166,-0.1661,-0.1662,-0.1819,-0.1822,-0.1826,0,0,0,0,0,0,0,0,0,0,0,0,0,-0.1535,-0.1537,-0.16,-0.1601,-0.1601,-0.162,-0.162,-0.1621,-0.1659,-0.166,-0.1661,-0.1662,-0.1818,-0.1822,-0.1826,0,0,0,0,0,0,0,0,0,0,0,0,0,-0.1561,-0.1537,-0.16,-0.1622,-0.1624,-0.162,-0.1621,-0.1621,-0.1659,-0.166,-0.1661,-0.1662,-0.1816,-0.1821,-0.1826,-0.1837,0,0,-0.1843,-0.1845,0,0,0,0,0,0,0,0,-0.1559,-0.1563,-0.1619,-0.1621,-0.1623,-0.1638,-0.1655,-0.17,-0.1659,-0.1646,-0.1662,-0.1663,-0.177,-0.1779,-0.1779,-0.1845,-0.1852,-0.1843,-0.1846,-0.1849,-0.185,0,0,0,0,0,0,0,-0.1558,-0.1562,-0.1609,-0.1619,-0.1621,-0.161,-0.1615,-0.1663,-0.1705,-0.1648,-0.165,-0.1651,-0.1772,-0.1774,-0.1783,-0.1854,-0.1843,-0.1848,-0.1851,-0.1853,-0.1895,-0.1894,0,0,0,0,0,0,-0.1556,-0.1561,-0.1608,-0.1609,-0.1593,-0.161,-0.1616,-0.1632,-0.1701,-0.1712,-0.165,-0.1653,-0.1764,-0.1777,-0.1789,-0.1772,-0.1848,-0.1853,-0.1856,-0.1898,-0.1895,-0.1893,0,0,0,0,0,0,-0.1555,-0.1561,-0.1607,-0.1584,-0.1589,-0.1611,-0.1628,-0.1632,-0.1651,-0.1702,-0.1715,-0.1666,-0.1766,-0.1782,-0.1788,-0.178,-0.1856,-0.1861,-0.19,-0.1897,-0.1894,-0.176,0,0,0,0,0,0,-0.1553,-0.1561,-0.1583,-0.1585,-0.1591,-0.1582,-0.1627,-0.1632,-0.1648,-0.1653,-0.172,-0.1734,-0.1768,-0.1779,-0.1793,-0.1789,-0.1865,-0.1902,-0.1899,-0.1895,-0.1767,-0.1753,-0.174,0,0,0,0,0,-0.1551,-0.1565,-0.1585,-0.1591,-0.1618,-0.158,-0.1581,-0.16,-0.1648,-0.1628,-0.1659,-0.1733,-0.1767,-0.1781,-0.1798,-0.1795,-0.1904,-0.19,-0.1895,-0.1773,-0.1755,-0.1741,0,0,0,0,0,0,-0.1542,-0.157,-0.1592,-0.1615,-0.1591,-0.1586,-0.1584,-0.1607,-0.1618,-0.1644,-0.17,-0.1712,-0.1711,-0.1768,-0.1782,-0.1793,-0.1853,-0.1851,-0.1754,-0.1738,-0.1725,-0.1745,-0.1869,0,0,0,0,0,-0.1553,-0.157,-0.1574,-0.1581,-0.1579,-0.159,-0.1589,-0.1601,-0.1606,-0.1615,-0.1655,-0.1698,-0.1702,-0.1731,-0.1746,-0.1764,-0.1796,-0.1774,-0.1761,-0.1749,-0.1774,-0.1762,-0.175,-0.1878,-0.1878,-0.1878,0,0,-0.1542,-0.1564,-0.1571,-0.1579,-0.1576,-0.1559,-0.1591,-0.1584,-0.1576,-0.1634,-0.1643,-0.165,-0.1689,-0.1676,-0.1687,-0.1731,-0.1722,-0.1743,-0.1733,-0.1766,-0.1756,-0.1744,-0.1733,-0.1875,-0.1875,-0.1876,0,0,-0.1507,-0.1556,-0.155,-0.1537,-0.1538,-0.1545,-0.1545,-0.1548,-0.1557,-0.154,-0.1574,-0.156,-0.1601,-0.1602,-0.1615,-0.1548,-0.1636,-0.1577,-0.1551,-0.1536,-0.1526,-0.1517,-0.151,-0.1502,-0.1589,-0.1589,-0.1589,0,-0.1502,-0.1509,-0.153,-0.1514,-0.1517,-0.154,-0.1525,-0.152,-0.1521,-0.1536,-0.1527,-0.1543,-0.1555,-0.1553,-0.1508,-0.152,-0.154,-0.1604,-0.1518,-0.1511,-0.1505,-0.15,-0.1493,-0.1582,-0.1583,-0.1583,-0.1584,0,-0.1446,-0.1464,-0.1452,-0.1459,-0.1453,-0.144,-0.1445,-0.1451,-0.1473,-0.1475,-0.1464,-0.1439,-0.1464,-0.1444,-0.145,-0.1429,-0.1463,-0.1483,-0.1559,-0.1484,-0.1483,-0.1478,-0.1572,-0.1574,-0.1576,-0.1578,0,0,-0.1415,-0.1422,-0.1418,-0.143,-0.144,-0.1428,-0.1427,-0.1434,-0.146,-0.1425,-0.1438,-0.1376,-0.1394,-0.1407,-0.1415,-0.139,-0.1313,-0.1422,-0.1425,-0.1416,-0.1296,-0.1164,-0.1147,-0.1327,-0.1326,-0.1326,-0.1301,0,-0.1373,-0.1352,-0.1369,-0.1355,-0.1356,-0.1392,-0.1387,-0.1401,-0.1415,-0.1427,-0.1405,-0.1405,-0.1376,-0.1385,-0.1344,-0.1342,-0.1302,-0.1319,-0.1373,-0.1375,-0.1266,-0.1136,-0.1125,-0.1089,-0.1297,-0.1297,-0.1296,0,-0.1318,-0.1326,-0.1309,-0.1348,-0.1352,-0.1345,-0.1396,-0.139,-0.1416,-0.143,-0.1433,-0.1443,-0.1411,-0.1381,-0.1328,-0.1352,-0.1312,-0.1287,-0.1286,-0.1219,-0.1232,-0.1205,-0.1074,-0.1289,-0.129,-0.129,-0.1291,0,-0.129,-0.1294,-0.1296,-0.1297,-0.1325,-0.1339,-0.1358,-0.1392,-0.1398,-0.1447,-0.1463,-0.1456,-0.1429,-0.1399,-0.1308,-0.1347,-0.1228,-0.1285,-0.1124,-0.1117,-0.1147,-0.1141,-0.1221,-0.1221,-0.1221,-0.1221,-0.1221,0,-0.1259,-0.1258,-0.1283,-0.1279,-0.1281,-0.132,-0.1329,-0.1362,-0.14,-0.1401,-0.146,-0.1441,-0.1426,-0.1358,-0.1315,-0.1168,-0.1228,-0.1095,-0.1084,-0.1092,-0.1082,-0.1308,-0.1319,-0.122,-0.1221,-0.1221,-0.1221,0,-0.1215,-0.1232,-0.1224,-0.1255,-0.1259,-0.1254,-0.1279,-0.1289,-0.1357,-0.1365,-0.1383,-0.1407,-0.133,-0.1275,-0.1196,-0.1136,-0.1048,-0.0973,-0.0969,-0.0955,-0.097,-0.0974,-0.0863,-0.0858,-0.0853,-0.085,-0.0847,0,-0.1183,-0.1177,-0.118,-0.1159,-0.1166,-0.117,-0.1166,-0.1236,-0.1248,-0.1317,-0.1305,-0.1269,-0.1208,-0.1039,-0.0939,-0.0835,-0.0871,-0.0745,-0.0791,-0.0922,-0.0925,-0.0937,-0.0946,-0.0791,-0.0788,-0.0785,-0.0783,0,-0.1115,-0.1115,-0.1105,-0.1069,-0.1054,-0.104,-0.1051,-0.1056,-0.1139,-0.1167,-0.1147,-0.1123,-0.0994,-0.0849,-0.0698,-0.0656,-0.0775,-0.0681,-0.0819,-0.085,-0.0842,-0.0849,-0.0864,-0.0759,-0.0761,-0.0763,-0.0764,-0.0765,-0.1042,-0.1013,-0.0993,-0.0952,-0.093,-0.0901,-0.0865,-0.0897,-0.0895,-0.0904,-0.0937,-0.0855,-0.0862,-0.0588,-0.0514,-0.0455,-0.054,-0.0556,-0.0571,-0.0587,-0.0549,-0.053,-0.0383,-0.0383,-0.0383,-0.0384,-0.0384,0,-0.0944,-0.0919,-0.0876,-0.082,-0.0763,-0.079,-0.0772,-0.0732,-0.069,-0.065,-0.0611,-0.0554,-0.047,-0.0435,-0.0315,-0.0299,-0.0381,-0.0286,-0.0421,-0.0445,-0.0467,-0.0428,-0.0227,-0.0226,-0.0225,-0.0224,0,0,-0.0884,-0.0817,-0.0798,-0.0664,-0.0626,-0.0527,-0.0494,-0.0456,-0.0385,-0.0309,-0.0243,-0.0281,-0.0338,-0.022,-0.0251,-0.0176,-0.0284,-0.0167,-0.0302,-0.0476,-0.0494,-0.0644,-0.0612,0,0,0,0,0]},{"header":{"parameterUnit":"m.s-1","parameterCategory":2,"la1":30.2991,"la2":30.254,"lo1":-89.0895,"lo2":-89.0444,"dy":0.0017,"dx":0.0017,"nx":28,"ny":28,"refTime":"2023-08-02T21:00:00:Z","depth":"2","parameterNumber":3,"parameterNumberName":"V-component_of_CURRENTS"},"data":[0,0,0,0,0,0,0,0,0,0,0,0,0,0,0,0,0,0,0,0,0,0,0,0,0,0,0,0,0,0,0,0,0,0,0,0,0,0,0,0,0,0,0,0,0,0,0,0,0,0,0,0,0,0,0,0,0,0,-0.0504,-0.0504,0,-0.0487,-0.0487,-0.0487,-0.0469,-0.0469,-0.0468,-0.0467,-0.0319,-0.0316,-0.0312,0,0,0,0,0,0,0,0,0,0,0,0,0,-0.0527,-0.0527,-0.0504,-0.0504,-0.0503,-0.0487,-0.0487,-0.0487,-0.0469,-0.0469,-0.0468,-0.0467,-0.032,-0.0316,-0.0312,0,0,0,0,0,0,0,0,0,0,0,0,0,-0.0518,-0.0527,-0.0504,-0.0489,-0.0487,-0.0487,-0.0487,-0.0487,-0.0469,-0.0469,-0.0468,-0.0467,-0.0321,-0.0316,-0.0311,-0.0299,0,0,-0.0296,-0.0294,0,0,0,0,0,0,0,0,-0.0519,-0.0518,-0.0492,-0.049,-0.0488,-0.0476,-0.044,-0.0416,-0.047,-0.0481,-0.0467,-0.0466,-0.0357,-0.0349,-0.0356,-0.0292,-0.0285,-0.0296,-0.0292,-0.029,-0.0289,0,0,0,0,0,0,0,-0.0519,-0.0518,-0.0501,-0.0491,-0.0489,-0.0485,-0.0483,-0.0437,-0.0425,-0.048,-0.0477,-0.0469,-0.0356,-0.0361,-0.0351,-0.0283,-0.0296,-0.0291,-0.0288,-0.0286,-0.015,-0.0149,0,0,0,0,0,0,-0.0514,-0.0519,-0.0502,-0.05,-0.0497,-0.0485,-0.0483,-0.0484,-0.0428,-0.0419,-0.047,-0.0468,-0.037,-0.0357,-0.0346,-0.0297,-0.029,-0.0286,-0.0283,-0.0151,-0.015,-0.0149,0,0,0,0,0,0,-0.0515,-0.0513,-0.0502,-0.0506,-0.0503,-0.0485,-0.0487,-0.0484,-0.0481,-0.0422,-0.041,-0.0468,-0.0369,-0.0353,-0.0314,-0.0292,-0.0283,-0.0279,-0.0151,-0.015,-0.015,-0.0217,0,0,0,0,0,0,-0.0516,-0.0514,-0.0522,-0.0506,-0.0503,-0.0502,-0.0487,-0.0484,-0.0476,-0.0473,-0.0416,-0.0402,-0.0367,-0.0322,-0.0309,-0.0285,-0.0275,-0.0152,-0.0151,-0.015,-0.0216,-0.0219,-0.0222,0,0,0,0,0,-0.0517,-0.0524,-0.0523,-0.052,-0.0512,-0.0502,-0.0501,-0.0487,-0.0476,-0.0481,-0.0449,-0.0404,-0.0305,-0.0319,-0.0303,-0.0277,-0.0152,-0.0151,-0.015,-0.0215,-0.0218,-0.0221,0,0,0,0,0,0,-0.0542,-0.0522,-0.052,-0.0523,-0.0514,-0.0498,-0.0498,-0.0488,-0.047,-0.046,-0.041,-0.0395,-0.0354,-0.0306,-0.0322,-0.0232,-0.0214,-0.021,-0.0269,-0.0272,-0.0274,-0.0249,-0.027,0,0,0,0,0,-0.0551,-0.0551,-0.0533,-0.0538,-0.0531,-0.0516,-0.0512,-0.05,-0.0477,-0.0469,-0.0433,-0.0381,-0.0338,-0.03,-0.0263,-0.0214,-0.0173,-0.018,-0.0183,-0.0186,-0.0154,-0.011,-0.0106,-0.0145,-0.0145,-0.0145,0,0,-0.0565,-0.0552,-0.0555,-0.0544,-0.0534,-0.0517,-0.0512,-0.0501,-0.0478,-0.0451,-0.0418,-0.0399,-0.0333,-0.0292,-0.0264,-0.0244,-0.0158,-0.0184,-0.0188,-0.0152,-0.0108,-0.0105,-0.0101,-0.0144,-0.0144,-0.0144,0,0,-0.0576,-0.0578,-0.0573,-0.0561,-0.0539,-0.0525,-0.0519,-0.0502,-0.0486,-0.0458,-0.0435,-0.0402,-0.0335,-0.029,-0.0252,-0.0239,-0.019,-0.0226,-0.02,-0.0161,-0.0157,-0.0154,-0.0123,-0.0116,-0.021,-0.021,-0.021,0,-0.0591,-0.0582,-0.0573,-0.0555,-0.0542,-0.0524,-0.0509,-0.0487,-0.0461,-0.0445,-0.0444,-0.0366,-0.0322,-0.0254,-0.0253,-0.0241,-0.0221,-0.0202,-0.0166,-0.0161,-0.0156,-0.0126,-0.0117,-0.0213,-0.0213,-0.0213,-0.0212,0,-0.0586,-0.058,-0.0574,-0.0543,-0.0531,-0.052,-0.0481,-0.0468,-0.0448,-0.0426,-0.0381,-0.0344,-0.0293,-0.0276,-0.0254,-0.0194,-0.0196,-0.0196,-0.0164,-0.0157,-0.0125,-0.0115,-0.0218,-0.0217,-0.0216,-0.0215,0,0,-0.0614,-0.058,-0.0577,-0.0571,-0.0525,-0.0521,-0.0472,-0.0436,-0.0422,-0.0379,-0.0357,-0.0279,-0.0278,-0.0234,-0.0215,-0.0163,-0.013,-0.0163,-0.0159,-0.0143,-0.0054,-0.0041,-0.0029,-0.014,-0.0138,-0.0136,-0.0057,0,-0.0613,-0.0596,-0.0566,-0.0549,-0.0541,-0.0504,-0.0471,-0.0433,-0.0409,-0.0389,-0.0317,-0.0302,-0.0254,-0.0264,-0.0195,-0.0156,-0.0101,-0.0151,-0.0051,-0.0047,-0.0045,-0.0015,-0.0078,-0.001,-0.0047,-0.0045,-0.0044,0,-0.061,-0.0603,-0.0592,-0.0569,-0.0561,-0.0546,-0.0517,-0.0482,-0.0425,-0.0414,-0.036,-0.0336,-0.0247,-0.0238,-0.0096,-0.0139,-0.0087,-0.0045,-0.0041,0.0015,-0.0013,-0.0015,0.001,-0.0026,-0.0027,-0.0029,-0.003,0,-0.065,-0.0619,-0.062,-0.0611,-0.0576,-0.0567,-0.0545,-0.0498,-0.0483,-0.0448,-0.0446,-0.0347,-0.0293,-0.0211,-0.0083,-0.0113,0.0066,0.0026,0.01,0.01,0.0097,0.0094,0.0132,0.0131,0.0131,0.0131,0.0131,0,-0.0663,-0.0664,-0.0649,-0.0655,-0.0658,-0.0616,-0.0614,-0.0588,-0.0557,-0.0526,-0.0471,-0.0418,-0.0281,-0.0161,-0.0085,0.007,0.0076,0.0131,0.0135,0.0069,0.0063,0.0096,0.0091,0.0134,0.0133,0.0133,0.0132,0,-0.0703,-0.0688,-0.0697,-0.0684,-0.0681,-0.0687,-0.0664,-0.066,-0.063,-0.0592,-0.0587,-0.0451,-0.0287,-0.0145,0.0017,0.0088,0.0195,0.0245,0.0162,0.0157,0.0189,0.0179,0.0299,0.0301,0.0302,0.0303,0.0304,0,-0.0718,-0.073,-0.0738,-0.0745,-0.0742,-0.0742,-0.0733,-0.0706,-0.0695,-0.059,-0.0566,-0.0407,-0.0272,-0.002,0.0126,0.0266,0.0273,0.0274,0.0218,0.0221,0.0213,0.0201,0.0191,0.0171,0.0171,0.017,0.017,0,-0.0751,-0.0761,-0.0771,-0.0793,-0.0799,-0.0792,-0.0778,-0.0784,-0.0715,-0.0668,-0.0533,-0.043,-0.0169,0.0009,0.0198,0.025,0.0235,0.0272,0.0321,0.0139,0.0107,0.0096,0.0089,0.0168,0.0168,0.0168,0.0169,0.0169,-0.0773,-0.0794,-0.0811,-0.0828,-0.0829,-0.0819,-0.0812,-0.0766,-0.072,-0.0592,-0.05,-0.0299,-0.0183,0.011,0.0209,0.03,0.0283,0.0252,0.025,0.0249,0.0221,0.0194,0.0264,0.0265,0.0266,0.0266,0.0267,0,-0.0794,-0.0812,-0.0835,-0.0849,-0.0851,-0.0845,-0.0816,-0.078,-0.069,-0.0524,-0.0386,-0.0227,-0.0063,0.0091,0.0237,0.0282,0.0246,0.0265,0.0202,0.0201,0.0202,0.017,0.0201,0.0202,0.0203,0.0203,0,0,-0.0801,-0.0832,-0.0846,-0.0857,-0.0861,-0.0852,-0.0828,-0.074,-0.0621,-0.0424,-0.0255,-0.0131,-0.0005,0.0078,0.0113,0.0194,0.0183,0.0177,0.0208,0.0123,0.0124,0.0158,0.0104,0,0,0,0,0]}],[{"header":{"parameterUnit":"m.s-1","parameterCategory":2,"la1":30.2991,"la2":30.254,"lo1":-89.0895,"lo2":-89.0444,"dy":0.0017,"dx":0.0017,"nx":28,"ny":28,"refTime":"2023-08-02T21:00:00:Z","depth":"4","parameterNumber":2,"parameterNumberName":"U-component_of_CURRENTS"},"data":[0,0,0,0,0,0,0,0,0,0,0,0,0,0,0,0,0,0,0,0,0,0,0,0,0,0,0,0,0,0,0,0,0,0,0,0,0,0,0,0,0,0,0,0,0,0,0,0,0,0,0,0,0,0,0,0,0,0,-0.0962,-0.0962,0,-0.0949,-0.0949,-0.0949,-0.0967,-0.0968,-0.0968,-0.0969,-0.098,-0.098,-0.098,0,0,0,0,0,0,0,0,0,0,0,0,0,-0.0978,-0.0978,-0.0962,-0.0962,-0.0961,-0.0949,-0.0949,-0.0949,-0.0967,-0.0968,-0.0968,-0.0969,-0.098,-0.098,-0.098,0,0,0,0,0,0,0,0,0,0,0,0,0,-0.097,-0.0978,-0.0962,-0.0968,-0.0968,-0.0949,-0.0949,-0.0949,-0.0967,-0.0968,-0.0968,-0.0969,-0.098,-0.098,-0.098,-0.0962,0,0,-0.0979,-0.0978,0,0,0,0,0,0,0,0,-0.0971,-0.097,-0.0967,-0.0968,-0.0968,-0.096,-0.0959,-0.0954,-0.0967,-0.0969,-0.0969,-0.097,-0.0974,-0.0974,-0.0971,-0.0962,-0.0963,-0.0979,-0.0978,-0.0978,-0.0978,0,0,0,0,0,0,0,-0.0971,-0.097,-0.0958,-0.0967,-0.0967,-0.0963,-0.0964,-0.0958,-0.0968,-0.0968,-0.0969,-0.0966,-0.0975,-0.0972,-0.0972,-0.0963,-0.0979,-0.0978,-0.0978,-0.0978,-0.0977,-0.0977,0,0,0,0,0,0,-0.0971,-0.0971,-0.0958,-0.0958,-0.097,-0.0963,-0.0963,-0.0962,-0.0968,-0.0969,-0.0965,-0.0967,-0.0972,-0.0972,-0.0972,-0.0994,-0.0978,-0.0978,-0.0978,-0.0976,-0.0977,-0.0977,0,0,0,0,0,0,-0.0971,-0.097,-0.0959,-0.0963,-0.0961,-0.0961,-0.0961,-0.0962,-0.0978,-0.0965,-0.0967,-0.0984,-0.0972,-0.0973,-0.0986,-0.0993,-0.0978,-0.0978,-0.0976,-0.0976,-0.0977,-0.1011,0,0,0,0,0,0,-0.0972,-0.097,-0.0978,-0.0963,-0.0961,-0.0953,-0.096,-0.0961,-0.0973,-0.0976,-0.0981,-0.0981,-0.0973,-0.0987,-0.0986,-0.0993,-0.0977,-0.0976,-0.0976,-0.0977,-0.1009,-0.1012,-0.1014,0,0,0,0,0,-0.0973,-0.097,-0.0979,-0.0977,-0.0969,-0.0952,-0.0951,-0.0955,-0.0974,-0.0975,-0.0989,-0.0982,-0.0988,-0.0987,-0.0986,-0.0993,-0.0976,-0.0976,-0.0977,-0.1008,-0.1011,-0.1014,0,0,0,0,0,0,-0.0978,-0.0971,-0.098,-0.0976,-0.0971,-0.0955,-0.0957,-0.0966,-0.0977,-0.099,-0.0988,-0.0989,-0.0999,-0.0992,-0.0991,-0.0991,-0.0979,-0.0979,-0.1003,-0.1006,-0.1008,-0.102,-0.0977,0,0,0,0,0,-0.0984,-0.0986,-0.0975,-0.0976,-0.0973,-0.0973,-0.0972,-0.0976,-0.0978,-0.0985,-0.0988,-0.0993,-0.0994,-0.1,-0.0992,-0.0999,-0.0983,-0.1,-0.1002,-0.1005,-0.1013,-0.0997,-0.1,-0.0978,-0.0978,-0.0978,0,0,-0.0987,-0.0984,-0.0986,-0.0978,-0.0977,-0.098,-0.0975,-0.0975,-0.0991,-0.0984,-0.1009,-0.1,-0.0997,-0.1001,-0.1004,-0.1001,-0.1,-0.1005,-0.1007,-0.1014,-0.0998,-0.1,-0.1002,-0.0978,-0.0978,-0.0978,0,0,-0.0985,-0.0992,-0.0991,-0.0992,-0.099,-0.0991,-0.0998,-0.0992,-0.1003,-0.1019,-0.1017,-0.102,-0.1023,-0.1019,-0.102,-0.1033,-0.101,-0.1026,-0.1054,-0.1039,-0.1041,-0.1043,-0.1014,-0.1013,-0.1032,-0.1032,-0.1032,0,-0.0994,-0.0994,-0.0988,-0.099,-0.1,-0.1003,-0.1013,-0.102,-0.1024,-0.1032,-0.1033,-0.1038,-0.1033,-0.1045,-0.1049,-0.104,-0.1022,-0.1045,-0.1043,-0.1045,-0.1045,-0.1016,-0.1014,-0.1034,-0.1033,-0.1033,-0.1033,0,-0.0988,-0.1001,-0.0999,-0.1014,-0.1022,-0.1027,-0.1037,-0.105,-0.1069,-0.1072,-0.1083,-0.1073,-0.1073,-0.1071,-0.1069,-0.1072,-0.1053,-0.1045,-0.1038,-0.105,-0.1018,-0.1015,-0.1036,-0.1035,-0.1035,-0.1034,0,0,-0.0981,-0.0995,-0.0999,-0.1016,-0.1039,-0.104,-0.1074,-0.1091,-0.1109,-0.1115,-0.1131,-0.1135,-0.1119,-0.1119,-0.1106,-0.1103,-0.109,-0.1082,-0.1081,-0.1058,-0.1046,-0.0971,-0.0961,-0.1081,-0.1081,-0.1081,-0.1017,0,-0.0986,-0.0997,-0.1009,-0.104,-0.1049,-0.1075,-0.1101,-0.1122,-0.1136,-0.1145,-0.1146,-0.1146,-0.1141,-0.1132,-0.1131,-0.1098,-0.1086,-0.1107,-0.1035,-0.1032,-0.0968,-0.0957,-0.1081,-0.1015,-0.1014,-0.1014,-0.1013,0,-0.0977,-0.099,-0.1015,-0.1053,-0.106,-0.1084,-0.1127,-0.1148,-0.1168,-0.1174,-0.118,-0.1168,-0.1165,-0.1153,-0.1117,-0.113,-0.1093,-0.1069,-0.1066,-0.0986,-0.0954,-0.1002,-0.1008,-0.1009,-0.1009,-0.101,-0.101,0,-0.0964,-0.0997,-0.1021,-0.1035,-0.1075,-0.1099,-0.1125,-0.1155,-0.116,-0.1183,-0.1175,-0.118,-0.1161,-0.1139,-0.1091,-0.1101,-0.1041,-0.1042,-0.0941,-0.0935,-0.1008,-0.1007,-0.1012,-0.1012,-0.1013,-0.1013,-0.1013,0,-0.0956,-0.0978,-0.1018,-0.1029,-0.1053,-0.1094,-0.1116,-0.114,-0.1159,-0.1147,-0.1177,-0.1151,-0.1157,-0.112,-0.1089,-0.0998,-0.1032,-0.094,-0.0913,-0.1021,-0.1023,-0.1005,-0.1005,-0.101,-0.1011,-0.1011,-0.1012,0,-0.093,-0.096,-0.0981,-0.1028,-0.1041,-0.1057,-0.1089,-0.1094,-0.1128,-0.1111,-0.1111,-0.1119,-0.1073,-0.1061,-0.1012,-0.097,-0.0909,-0.0867,-0.0973,-0.0954,-0.0814,-0.0817,-0.0748,-0.0745,-0.0742,-0.074,-0.0738,0,-0.091,-0.0922,-0.0961,-0.0961,-0.0982,-0.1009,-0.1017,-0.1064,-0.1059,-0.1069,-0.1043,-0.1022,-0.1013,-0.0882,-0.0895,-0.0829,-0.0817,-0.0781,-0.0814,-0.0806,-0.0787,-0.0794,-0.08,-0.0734,-0.0733,-0.0732,-0.0732,0,-0.0865,-0.0888,-0.0898,-0.0898,-0.0908,-0.0913,-0.093,-0.0915,-0.0954,-0.0996,-0.0931,-0.0894,-0.0844,-0.0815,-0.0769,-0.0727,-0.0809,-0.0753,-0.0759,-0.079,-0.0788,-0.0773,-0.0782,-0.0722,-0.0724,-0.0725,-0.0725,0,-0.0819,-0.081,-0.082,-0.0809,-0.0819,-0.0796,-0.0824,-0.0809,-0.081,-0.0836,-0.0809,-0.0798,-0.0823,-0.0758,-0.0714,-0.0672,-0.0662,-0.0638,-0.065,-0.066,-0.0663,-0.065,-0.0511,0,0,0,0,0,-0.0763,-0.0738,-0.0725,-0.0701,-0.0711,-0.0712,-0.0747,-0.0782,-0.0824,-0.0748,-0.0775,-0.0723,-0.0662,-0.0666,-0.06,-0.0675,-0.0669,-0.0597,-0.065,-0.0671,-0.0682,-0.0695,0,0,0,0,0,0,-0.0717,-0.0709,-0.0692,-0.0608,-0.0576,-0.0575,-0.0592,-0.0632,-0.0601,-0.0651,-0.0623,-0.0661,-0.0619,-0.0672,-0.0575,-0.0575,-0.0589,-0.0603,-0.06,-0.0665,-0.0674,-0.0683,-0.0701,0,0,0,0,0]},{"header":{"parameterUnit":"m.s-1","parameterCategory":2,"la1":30.2991,"la2":30.254,"lo1":-89.0895,"lo2":-89.0444,"dy":0.0017,"dx":0.0017,"nx":28,"ny":28,"refTime":"2023-08-02T21:00:00:Z","depth":"4","parameterNumber":3,"parameterNumberName":"V-component_of_CURRENTS"},"data":[0,0,0,0,0,0,0,0,0,0,0,0,0,0,0,0,0,0,0,0,0,0,0,0,0,0,0,0,0,0,0,0,0,0,0,0,0,0,0,0,0,0,0,0,0,0,0,0,0,0,0,0,0,0,0,0,0,0,-0.0406,-0.0406,0,-0.0409,-0.041,-0.041,-0.0429,-0.043,-0.043,-0.0431,-0.0407,-0.0406,-0.0405,0,0,0,0,0,0,0,0,0,0,0,0,0,-0.0391,-0.0392,-0.0406,-0.0406,-0.0406,-0.0409,-0.041,-0.041,-0.0429,-0.043,-0.043,-0.0431,-0.0408,-0.0407,-0.0405,0,0,0,0,0,0,0,0,0,0,0,0,0,-0.0397,-0.0392,-0.0406,-0.0416,-0.0417,-0.0409,-0.041,-0.041,-0.0429,-0.043,-0.0431,-0.0431,-0.0408,-0.0407,-0.0405,-0.0384,0,0,-0.0401,-0.04,0,0,0,0,0,0,0,0,-0.0397,-0.0398,-0.0414,-0.0415,-0.0416,-0.0419,-0.0396,-0.0399,-0.0429,-0.0425,-0.0431,-0.0431,-0.0408,-0.0406,-0.0407,-0.0383,-0.0382,-0.0401,-0.04,-0.0399,-0.0399,0,0,0,0,0,0,0,-0.0397,-0.0398,-0.0408,-0.0414,-0.0415,-0.0411,-0.0413,-0.0397,-0.0413,-0.0426,-0.0427,-0.0426,-0.0408,-0.0409,-0.0407,-0.0381,-0.0401,-0.0399,-0.0398,-0.0398,-0.0332,-0.0331,0,0,0,0,0,0,-0.0395,-0.0398,-0.0408,-0.0408,-0.0407,-0.0411,-0.0413,-0.0418,-0.0414,-0.0414,-0.0425,-0.0427,-0.0411,-0.0408,-0.0406,-0.0372,-0.0399,-0.0398,-0.0397,-0.0333,-0.0332,-0.0331,0,0,0,0,0,0,-0.0395,-0.0397,-0.0408,-0.0402,-0.0403,-0.0411,-0.0416,-0.0418,-0.0427,-0.0414,-0.0414,-0.0433,-0.0411,-0.0408,-0.0388,-0.0372,-0.0397,-0.0396,-0.0334,-0.0332,-0.0331,-0.0309,0,0,0,0,0,0,-0.0395,-0.0397,-0.0406,-0.0402,-0.0403,-0.0405,-0.0415,-0.0417,-0.0424,-0.0426,-0.042,-0.0418,-0.0412,-0.039,-0.0386,-0.037,-0.0394,-0.0335,-0.0333,-0.0332,-0.0311,-0.0307,-0.0304,0,0,0,0,0,-0.0394,-0.0402,-0.0406,-0.0408,-0.0414,-0.0404,-0.0405,-0.0412,-0.0424,-0.0424,-0.0415,-0.0419,-0.0377,-0.0388,-0.0384,-0.0367,-0.0336,-0.0334,-0.0332,-0.0313,-0.0308,-0.0304,0,0,0,0,0,0,-0.0405,-0.0404,-0.0409,-0.0418,-0.0412,-0.0408,-0.0413,-0.0415,-0.041,-0.0414,-0.0407,-0.0404,-0.0381,-0.0375,-0.0388,-0.0343,-0.0357,-0.0354,-0.0344,-0.034,-0.0336,-0.0319,-0.0393,0,0,0,0,0,-0.041,-0.0415,-0.0409,-0.0418,-0.0416,-0.0416,-0.0416,-0.0416,-0.0408,-0.0409,-0.0402,-0.0389,-0.0368,-0.0357,-0.0342,-0.0315,-0.0305,-0.0302,-0.0298,-0.0295,-0.0278,-0.023,-0.022,-0.0324,-0.0324,-0.0324,0,0,-0.042,-0.0418,-0.0424,-0.042,-0.042,-0.0405,-0.0418,-0.0415,-0.0397,-0.0404,-0.0384,-0.0379,-0.0359,-0.033,-0.0319,-0.0324,-0.0268,-0.0293,-0.0291,-0.0274,-0.0227,-0.0216,-0.0207,-0.0323,-0.0323,-0.0323,0,0,-0.0423,-0.0436,-0.0434,-0.0424,-0.0416,-0.0408,-0.0407,-0.0399,-0.0393,-0.0369,-0.0368,-0.0344,-0.0326,-0.0296,-0.0281,-0.0246,-0.0255,-0.0257,-0.0219,-0.0173,-0.0164,-0.0155,-0.0165,-0.0157,-0.0251,-0.0251,-0.0251,0,-0.0435,-0.0431,-0.0432,-0.0417,-0.0409,-0.0407,-0.0392,-0.0377,-0.0361,-0.0342,-0.036,-0.0307,-0.0299,-0.0239,-0.0233,-0.0235,-0.0236,-0.0239,-0.0168,-0.0159,-0.0151,-0.0162,-0.0154,-0.0249,-0.025,-0.025,-0.025,0,-0.0425,-0.0422,-0.042,-0.0399,-0.0387,-0.0377,-0.035,-0.0334,-0.033,-0.0308,-0.0263,-0.0245,-0.0211,-0.0208,-0.0211,-0.0149,-0.018,-0.0173,-0.0178,-0.0139,-0.0154,-0.0146,-0.0248,-0.0248,-0.0248,-0.0249,0,0,-0.0449,-0.042,-0.042,-0.0412,-0.0378,-0.0371,-0.0325,-0.0285,-0.0268,-0.023,-0.0199,-0.0146,-0.0143,-0.0125,-0.0123,-0.0082,-0.0044,-0.0108,-0.0106,-0.0118,0.0014,-0.0027,-0.0023,-0.003,-0.0027,-0.0025,-0.0033,0,-0.0444,-0.0425,-0.04,-0.0379,-0.037,-0.0338,-0.0303,-0.0261,-0.0236,-0.0207,-0.0149,-0.0131,-0.0108,-0.0117,-0.0056,-0.0058,-0.0016,-0.0045,-0.0021,-0.002,-0.006,-0.0011,-0.0018,-0.0027,-0.0026,-0.0024,-0.0023,0,-0.0439,-0.043,-0.0414,-0.0381,-0.0374,-0.0358,-0.0317,-0.0281,-0.0214,-0.0197,-0.0132,-0.0113,-0.0045,-0.0049,0.0037,0.001,0.0025,0.0034,0.0034,0.0002,-0.0044,-0.0065,-0.0009,-0.001,-0.0011,-0.0012,-0.0013,0,-0.0472,-0.0438,-0.0434,-0.0423,-0.0382,-0.0369,-0.0345,-0.0285,-0.0268,-0.0204,-0.0206,-0.0096,-0.0098,-0.0008,0.0017,0.0023,0.0083,0.0095,0.0082,0.0076,0.0103,0.0094,0.0178,0.0178,0.0178,0.0178,0.0178,0,-0.0477,-0.0476,-0.0459,-0.0461,-0.046,-0.0412,-0.0402,-0.0361,-0.0317,-0.0296,-0.0218,-0.0202,-0.009,-0.0046,0.0017,0.0062,0.0093,0.0103,0.0092,0.0104,0.0097,0.0105,0.0097,0.0177,0.0178,0.0178,0.0178,0,-0.0511,-0.0497,-0.0502,-0.0482,-0.0482,-0.0486,-0.0464,-0.0449,-0.041,-0.0388,-0.0377,-0.03,-0.0233,-0.0138,-0.0041,0.0018,0.0086,0.0093,0.0057,0.0041,0.0047,0.0039,0.0101,0.01,0.01,0.0099,0.0098,0,-0.0522,-0.0532,-0.0545,-0.0558,-0.0557,-0.0558,-0.0553,-0.0507,-0.0488,-0.0442,-0.0435,-0.0388,-0.032,-0.0212,-0.0109,0.0015,0.0036,0.0057,0.0118,0.0066,0.0049,0.0043,0.0037,0.0097,0.0097,0.0096,0.0096,0,-0.055,-0.0568,-0.0577,-0.0614,-0.0628,-0.0627,-0.0617,-0.0614,-0.0548,-0.0536,-0.047,-0.0395,-0.0339,-0.0219,-0.0151,-0.0051,0.0049,0.0048,0.0052,0.011,0.0061,0.0043,0.0039,0.0093,0.0093,0.0094,0.0094,0,-0.0578,-0.06,-0.0625,-0.0649,-0.0671,-0.0669,-0.0661,-0.0621,-0.0597,-0.0526,-0.0514,-0.0422,-0.0368,-0.0258,-0.018,-0.01,-0.0057,-0.0011,-0.0003,0.0001,-0.0016,-0.0092,-0.01,0,0,0,0,0,-0.0593,-0.0617,-0.065,-0.0673,-0.0696,-0.0702,-0.0681,-0.0659,-0.0614,-0.0566,-0.0527,-0.0453,-0.0329,-0.0283,-0.0205,-0.0201,-0.006,-0.0109,-0.0008,0.0076,0.008,0.0076,0,0,0,0,0,0,-0.0602,-0.0641,-0.0653,-0.0682,-0.0701,-0.0714,-0.0696,-0.0668,-0.0621,-0.0572,-0.0503,-0.0451,-0.0334,-0.0381,-0.0213,-0.0192,-0.0117,-0.005,-0.0049,0.0074,0.0077,0.008,0.0078,0,0,0,0,0]}]]